{"data":{"norad_id":65247,"intl_designator":"2025-179N","name":"STARLINK-34923","alt_names":[],"object_type":"PAYLOAD","status":"ACTIVE","operator":null,"country":"US","launch_date":"2025-08-18","launch_site_code":"AFWTR","launch_vehicle":null,"mission":null,"orbit_class":"UNKNOWN","rcs_meters":null,"size_class":null,"mass_kg":null,"dimensions":null,"purposes":["comms"],"wikipedia_slug":null,"has_3d_model":false,"image_url":null,"decayed_at":null,"tle_current":{"epoch":"2026-05-25T02:45:16.953984Z","epoch_age_seconds":55312,"freshness":"FRESH","line1":"1 65247U 25179N   26145.11477956  .00002051  00000+0  14616-3 0  9994","line2":"2 65247  97.4480 187.8598 0001980 116.2439 243.8992 15.05655263 43369","mean_motion":15.05655263,"eccentricity":0.000198,"inclination_deg":97.448,"raan_deg":187.8598,"arg_perigee_deg":116.2439,"mean_anomaly_deg":243.8992,"bstar":0.00014616,"rev_number":4336,"period_min":95.639422607989,"perigee_km":548.12333921737,"apogee_km":550.86668149347,"semimajor_km":6927.6320103554,"source":"CELESTRAK","updated_at":"2026-05-25T13:38:20.726534Z"}}}